Погода в Карабаше

Россия / Челябинская область     55°29′26″N   60°12′10″E
темп.,
°C
ветер,
м/с
пор.,
м/с
влажн.,
%
обл.,
%
осадки,
мм/ч
давл.,
гПа
погр.,
м
1 августа, вс
вс123:00+18ю379096 0.5 1008163
02:00+17зюз239583 0.7 100762
05:00+16з2496100 0.7 100887
08:00+19з411878 0.0 1009775
11:00+24зсз610560 0.0 10091393
14:00+26зсз6104315 0.0 10092292
17:00+26зсз5104168 0.0 10102364
20:00+21з276211 0.0 1010186
2 августа, пн
пн223:00+16з2280100 0.0 101218
02:00+15з2284100 0.0 101219
05:00+15зюз2285100 0.0 101335
08:00+19зсз310658 0.0 1014470
11:00+24зсз584345 0.0 10141653
14:00+26сз583833 0.0 10142005
17:00+26сз57395 0.0 10132179
20:00+20зсз226713 0.0 101417
3 августа, вт
вт323:00+17зюз1175100 0.0 101511
02:00+16з117774 0.0 101511
05:00+16з21795 0.0 101513
08:00+21зюз13601 0.0 1015180
11:00+27з46385 0.0 10141358
14:00+30зсз453224 0.0 10132282
17:00+29зсз45325 0.0 10132430
20:00+24юз115928 0.0 101311
4 августа, ср
ср423:00+18с11745 0.0 101412
02:00+17ююв00845 0.0 101411
05:00+17юз11775 0.0 101411
08:00+23ююв12565 0.0 1014122
11:00+29юв223870 0.0 1013623
14:00+33ююв24295 0.0 10112196
17:00+33з352725 0.0 10102312
20:00+26з115746 0.0 101011
5 августа, чт
чт523:00+22зсз2358100 0.0 101151
02:00+19зсз225990 0.0 101124
05:00+18ююз1162100 0.0 101211
08:00+22зсз1160100 0.0 101162
11:00+26зсз244587 0.0 1011717
14:00+30зсз233336 0.0 10101885
17:00+30ссз22325 0.0 10082434
20:00+16ююз41194100 2.8 1013274